contact:dominique.lefevre@mio.osupytheas.fr, maurice.libes@osupytheas.fr, didier.mallarino@osupytheas.fr
Project:EMSO http://www.emso-fr.org/EMSO-France
Depth: 2436.0 m
Title:EMSO Ligure Ouest : Data MII capteur MICROCAT
DateTime_Computer,Latitude,Longitude,Temperature,Conductivity,Pressure,DateTime_Instrument
DateTime_Computer,Latitude,Longitude,degC,S m-1,dbar,DateTime_Instrument
2021-07-10T00:02:43Z,42.805,6.029,13.2986,4.60083,2470.38,2021-7-10T02:03:58Z
2021-07-10T00:05:46Z,42.805,6.029,13.2984,4.60057,2470.38,2021-7-10T02:07:01Z
2021-07-10T00:08:49Z,42.805,6.029,13.3000,4.60081,2470.39,2021-7-10T02:10:05Z
2021-07-10T00:11:52Z,42.805,6.029,13.2991,4.60075,2470.357,2021-7-10T02:13:08Z
2021-07-10T00:14:55Z,42.805,6.029,13.2988,4.60087,2470.366,2021-7-10T02:16:11Z
2021-07-10T00:17:58Z,42.805,6.029,13.2986,4.60087,2470.39,2021-7-10T02:19:14Z
2021-07-10T00:21:02Z,42.805,6.029,13.2986,4.60090,2470.343,2021-7-10T02:22:17Z
2021-07-10T00:24:05Z,42.805,6.029,13.2986,4.60081,2470.366,2021-7-10T02:25:20Z
2021-07-10T00:27:08Z,42.805,6.029,13.2986,4.60101,2470.366,2021-7-10T02:28:23Z
2021-07-10T00:30:11Z,42.805,6.029,13.2987,4.60104,2470.32,2021-7-10T02:31:26Z
2021-07-10T00:33:14Z,42.805,6.029,13.2990,4.60097,2470.366,2021-7-10T02:34:30Z
2021-07-10T00:36:17Z,42.805,6.029,13.2995,4.60084,2470.404,2021-7-10T02:37:33Z
2021-07-10T00:39:20Z,42.805,6.029,13.2986,4.60083,2470.357,2021-7-10T02:40:36Z
2021-07-10T00:42:23Z,42.805,6.029,13.2991,4.60064,2470.404,2021-7-10T02:43:39Z
2021-07-10T00:45:27Z,42.805,6.029,13.2994,4.60089,2470.38,2021-7-10T02:46:42Z
2021-07-10T00:48:30Z,42.805,6.029,13.2987,4.60095,2470.343,2021-7-10T02:49:45Z
2021-07-10T00:51:33Z,42.805,6.029,13.2993,4.60064,2470.366,2021-7-10T02:52:48Z
2021-07-10T00:54:36Z,42.805,6.029,13.2987,4.60116,2470.366,2021-7-10T02:55:51Z
2021-07-10T00:57:39Z,42.805,6.029,13.2990,4.60076,2470.357,2021-7-10T02:58:55Z
2021-07-10T01:00:42Z,42.805,6.029,13.3054,4.60043,2470.32,2021-7-10T03:01:58Z
2021-07-10T01:03:45Z,42.805,6.029,13.3051,4.60062,2470.343,2021-7-10T03:05:01Z
2021-07-10T01:06:48Z,42.805,6.029,13.3054,4.60062,2470.357,2021-7-10T03:08:04Z
2021-07-10T01:09:52Z,42.805,6.029,13.3044,4.60048,2470.357,2021-7-10T03:11:07Z
2021-07-10T01:12:55Z,42.805,6.029,13.3040,4.60055,2470.357,2021-7-10T03:14:10Z
2021-07-10T01:15:58Z,42.805,6.029,13.3047,4.60044,2470.343,2021-7-10T03:17:13Z
2021-07-10T01:19:01Z,42.805,6.029,13.3029,4.60092,2470.343,2021-7-10T03:20:16Z
2021-07-10T01:22:04Z,42.805,6.029,13.3043,4.60068,2470.343,2021-7-10T03:23:20Z
2021-07-10T01:25:07Z,42.805,6.029,13.2991,4.60056,2470.343,2021-7-10T03:26:23Z
2021-07-10T01:28:10Z,42.805,6.029,13.3021,4.60036,2470.343,2021-7-10T03:29:26Z
2021-07-10T01:31:13Z,42.805,6.029,13.3066,4.60062,2470.32,2021-7-10T03:32:29Z
2021-07-10T01:34:17Z,42.805,6.029,13.3054,4.60057,2470.343,2021-7-10T03:35:32Z
2021-07-10T01:37:20Z,42.805,6.029,13.3037,4.60041,2470.343,2021-7-10T03:38:35Z
2021-07-10T01:40:23Z,42.805,6.029,13.3041,4.60063,2470.357,2021-7-10T03:41:38Z
2021-07-10T01:43:26Z,42.805,6.029,13.3048,4.60068,2470.357,2021-7-10T03:44:41Z
2021-07-10T01:46:29Z,42.805,6.029,13.3046,4.60064,2470.334,2021-7-10T03:47:45Z
2021-07-10T01:49:32Z,42.805,6.029,13.3045,4.60049,2470.32,2021-7-10T03:50:48Z
2021-07-10T01:52:35Z,42.805,6.029,13.3067,4.60029,2470.357,2021-7-10T03:53:51Z
2021-07-10T01:55:38Z,42.805,6.029,13.3041,4.60046,2470.32,2021-7-10T03:56:54Z
2021-07-10T01:58:42Z,42.805,6.029,13.3046,4.60039,2470.334,2021-7-10T03:59:57Z
2021-07-10T02:01:45Z,42.805,6.029,13.3011,4.60053,2470.301,2021-7-10T04:03:00Z
2021-07-10T02:04:48Z,42.805,6.029,13.3034,4.60049,2470.32,2021-7-10T04:06:03Z
2021-07-10T02:07:51Z,42.805,6.029,13.3011,4.60040,2470.297,2021-7-10T04:09:06Z
2021-07-10T02:10:54Z,42.805,6.029,13.3006,4.60044,2470.334,2021-7-10T04:12:10Z
2021-07-10T02:13:57Z,42.805,6.029,13.3030,4.60041,2470.297,2021-7-10T04:15:13Z
2021-07-10T02:17:00Z,42.805,6.029,13.2992,4.60034,2470.334,2021-7-10T04:18:16Z
2021-07-10T02:20:03Z,42.805,6.029,13.2991,4.60026,2470.334,2021-7-10T04:21:19Z
2021-07-10T02:23:06Z,42.805,6.029,13.2989,4.60031,2470.334,2021-7-10T04:24:22Z
2021-07-10T02:26:10Z,42.805,6.029,13.2989,4.60031,2470.343,2021-7-10T04:27:25Z
2021-07-10T02:29:13Z,42.805,6.029,13.2986,4.60022,2470.343,2021-7-10T04:30:28Z
2021-07-10T02:32:16Z,42.805,6.029,13.2987,4.60014,2470.343,2021-7-10T04:33:31Z
2021-07-10T02:35:19Z,42.805,6.029,13.2983,4.60012,2470.297,2021-7-10T04:36:35Z
2021-07-10T02:38:22Z,42.805,6.029,13.2987,4.60024,2470.297,2021-7-10T04:39:38Z
2021-07-10T02:41:25Z,42.805,6.029,13.2985,4.60008,2470.366,2021-7-10T04:42:41Z
2021-07-10T02:44:28Z,42.805,6.029,13.2989,4.60003,2470.357,2021-7-10T04:45:44Z
2021-07-10T02:47:31Z,42.805,6.029,13.2986,4.60006,2470.32,2021-7-10T04:48:47Z
2021-07-10T02:50:35Z,42.805,6.029,13.2984,4.60003,2470.357,2021-7-10T04:51:50Z
2021-07-10T02:53:38Z,42.805,6.029,13.2982,4.60004,2470.32,2021-7-10T04:54:53Z
2021-07-10T02:56:41Z,42.805,6.029,13.2990,4.60004,2470.32,2021-7-10T04:57:56Z
2021-07-10T02:59:44Z,42.805,6.029,13.2987,4.60006,2470.343,2021-7-10T05:00:59Z
2021-07-10T03:02:47Z,42.805,6.029,13.2990,4.60008,2470.357,2021-7-10T05:04:03Z
2021-07-10T03:05:50Z,42.805,6.029,13.2985,4.60011,2470.273,2021-7-10T05:07:06Z
2021-07-10T03:08:53Z,42.805,6.029,13.2990,4.60016,2470.334,2021-7-10T05:10:09Z
2021-07-10T03:11:56Z,42.805,6.029,13.2986,4.60014,2470.334,2021-7-10T05:13:12Z
2021-07-10T03:15:00Z,42.805,6.029,13.2985,4.60005,2470.287,2021-7-10T05:16:15Z
2021-07-10T03:18:03Z,42.805,6.029,13.2986,4.60003,2470.343,2021-7-10T05:19:18Z
2021-07-10T03:21:06Z,42.805,6.029,13.2988,4.60007,2470.357,2021-7-10T05:22:21Z
2021-07-10T03:24:09Z,42.805,6.029,13.2986,4.60006,2470.357,2021-7-10T05:25:24Z
2021-07-10T03:27:12Z,42.805,6.029,13.2988,4.60011,2470.297,2021-7-10T05:28:28Z
2021-07-10T03:30:15Z,42.805,6.029,13.2985,4.60004,2470.357,2021-7-10T05:31:31Z
2021-07-10T03:33:18Z,42.805,6.029,13.2986,4.60003,2470.32,2021-7-10T05:34:34Z
2021-07-10T03:36:21Z,42.805,6.029,13.2991,4.60003,2470.343,2021-7-10T05:37:37Z
2021-07-10T03:39:25Z,42.805,6.029,13.2990,4.60006,2470.343,2021-7-10T05:40:40Z
2021-07-10T03:42:28Z,42.805,6.029,13.2987,4.60003,2470.334,2021-7-10T05:43:43Z
2021-07-10T03:45:31Z,42.805,6.029,13.2982,4.60005,2470.32,2021-7-10T05:46:46Z
2021-07-10T03:48:34Z,42.805,6.029,13.2986,4.60003,2470.343,2021-7-10T05:49:49Z
2021-07-10T03:51:37Z,42.805,6.029,13.2987,4.60002,2470.343,2021-7-10T05:52:53Z
2021-07-10T03:54:40Z,42.805,6.029,13.2985,4.60002,2470.32,2021-7-10T05:55:56Z
2021-07-10T03:57:43Z,42.805,6.029,13.2984,4.60005,2470.366,2021-7-10T05:58:59Z
2021-07-10T04:00:46Z,42.805,6.029,13.2985,4.60015,2470.343,2021-7-10T06:02:02Z
2021-07-10T04:03:50Z,42.805,6.029,13.2987,4.60003,2470.357,2021-7-10T06:05:05Z
2021-07-10T04:06:53Z,42.805,6.029,13.2987,4.60007,2470.343,2021-7-10T06:08:08Z
2021-07-10T04:09:56Z,42.805,6.029,13.2986,4.60009,2470.343,2021-7-10T06:11:11Z
2021-07-10T04:12:59Z,42.805,6.029,13.2990,4.60005,2470.343,2021-7-10T06:14:14Z
2021-07-10T04:16:02Z,42.805,6.029,13.2991,4.60003,2470.38,2021-7-10T06:17:18Z
2021-07-10T04:19:05Z,42.805,6.029,13.2988,4.60003,2470.343,2021-7-10T06:20:21Z
2021-07-10T04:22:08Z,42.805,6.029,13.2986,4.60006,2470.343,2021-7-10T06:23:24Z
2021-07-10T04:25:11Z,42.805,6.029,13.2986,4.60003,2470.343,2021-7-10T06:26:27Z
2021-07-10T04:28:15Z,42.805,6.029,13.2986,4.60003,2470.366,2021-7-10T06:29:30Z
2021-07-10T04:31:18Z,42.805,6.029,13.2988,4.60003,2470.357,2021-7-10T06:32:33Z
2021-07-10T04:34:21Z,42.805,6.029,13.2986,4.60007,2470.366,2021-7-10T06:35:36Z
2021-07-10T04:37:24Z,42.805,6.029,13.2987,4.60003,2470.413,2021-7-10T06:38:39Z
2021-07-10T04:40:27Z,42.805,6.029,13.2983,4.60003,2470.366,2021-7-10T06:41:43Z
2021-07-10T04:43:30Z,42.805,6.029,13.2990,4.60009,2470.343,2021-7-10T06:44:46Z
2021-07-10T04:46:33Z,42.805,6.029,13.2989,4.60003,2470.39,2021-7-10T06:47:49Z
2021-07-10T04:49:36Z,42.805,6.029,13.2989,4.60003,2470.39,2021-7-10T06:50:52Z
2021-07-10T04:52:40Z,42.805,6.029,13.2987,4.60007,2470.39,2021-7-10T06:53:55Z
2021-07-10T04:55:43Z,42.805,6.029,13.2987,4.60001,2470.38,2021-7-10T06:56:58Z
2021-07-10T04:58:46Z,42.805,6.029,13.2987,4.60000,2470.366,2021-7-10T07:00:01Z
2021-07-10T05:01:49Z,42.805,6.029,13.2986,4.60005,2470.39,2021-7-10T07:03:04Z
2021-07-10T05:04:52Z,42.805,6.029,13.2985,4.60001,2470.39,2021-7-10T07:06:08Z
2021-07-10T05:07:55Z,42.805,6.029,13.2990,4.60001,2470.39,2021-7-10T07:09:11Z
2021-07-10T05:10:58Z,42.805,6.029,13.2984,4.60003,2470.39,2021-7-10T07:12:14Z
2021-07-10T05:14:01Z,42.805,6.029,13.2988,4.60003,2470.39,2021-7-10T07:15:17Z
2021-07-10T05:17:05Z,42.805,6.029,13.2986,4.60002,2470.404,2021-7-10T07:18:20Z
2021-07-10T05:20:08Z,42.805,6.029,13.2990,4.60001,2470.427,2021-7-10T07:21:23Z
2021-07-10T05:23:11Z,42.805,6.029,13.2989,4.60001,2470.39,2021-7-10T07:24:26Z
2021-07-10T05:26:14Z,42.805,6.029,13.2989,4.60002,2470.413,2021-7-10T07:27:29Z
2021-07-10T05:29:17Z,42.805,6.029,13.2987,4.60002,2470.423,2021-7-10T07:30:33Z
2021-07-10T05:32:20Z,42.805,6.029,13.2988,4.60001,2470.39,2021-7-10T07:33:36Z
2021-07-10T05:35:23Z,42.805,6.029,13.2988,4.60002,2470.404,2021-7-10T07:36:39Z
2021-07-10T05:38:26Z,42.805,6.029,13.2987,4.60009,2470.427,2021-7-10T07:39:42Z
2021-07-10T05:41:30Z,42.805,6.029,13.2984,4.60004,2470.413,2021-7-10T07:42:45Z
2021-07-10T05:44:33Z,42.805,6.029,13.2989,4.60001,2470.437,2021-7-10T07:45:48Z
2021-07-10T05:47:36Z,42.805,6.029,13.2990,4.60005,2470.39,2021-7-10T07:48:51Z
2021-07-10T05:50:39Z,42.805,6.029,13.2985,4.60004,2470.39,2021-7-10T07:51:54Z
2021-07-10T05:53:42Z,42.805,6.029,13.2991,4.60001,2470.413,2021-7-10T07:54:58Z
2021-07-10T05:56:45Z,42.805,6.029,13.2991,4.60001,2470.427,2021-7-10T07:58:01Z
2021-07-10T05:59:48Z,42.805,6.029,13.2988,4.60001,2470.404,2021-7-10T08:01:04Z
2021-07-10T06:02:51Z,42.805,6.029,13.2987,4.59999,2470.437,2021-7-10T08:04:07Z
2021-07-10T06:05:55Z,42.805,6.029,13.2984,4.60000,2470.437,2021-7-10T08:07:10Z
2021-07-10T06:08:58Z,42.805,6.029,13.2983,4.60001,2470.437,2021-7-10T08:10:13Z
2021-07-10T06:12:01Z,42.805,6.029,13.2991,4.60001,2470.413,2021-7-10T08:13:16Z
2021-07-10T06:15:04Z,42.805,6.029,13.2986,4.60002,2470.483,2021-7-10T08:16:19Z
2021-07-10T06:18:07Z,42.805,6.029,13.2983,4.60001,2470.427,2021-7-10T08:19:23Z
2021-07-10T06:21:10Z,42.805,6.029,13.2984,4.60007,2470.413,2021-7-10T08:22:26Z
2021-07-10T06:24:13Z,42.805,6.029,13.2989,4.60008,2470.427,2021-7-10T08:25:29Z
2021-07-10T06:27:16Z,42.805,6.029,13.2987,4.60006,2470.413,2021-7-10T08:28:32Z
2021-07-10T06:30:20Z,42.805,6.029,13.2984,4.60009,2470.427,2021-7-10T08:31:35Z
2021-07-10T06:33:23Z,42.805,6.029,13.2986,4.59999,2470.39,2021-7-10T08:34:38Z
2021-07-10T06:36:26Z,42.805,6.029,13.2986,4.60007,2470.437,2021-7-10T08:37:41Z
2021-07-10T06:39:29Z,42.805,6.029,13.2988,4.60003,2470.45,2021-7-10T08:40:44Z
2021-07-10T06:42:32Z,42.805,6.029,13.2988,4.60006,2470.427,2021-7-10T08:43:48Z
2021-07-10T06:45:35Z,42.805,6.029,13.2986,4.60006,2470.413,2021-7-10T08:46:51Z
2021-07-10T06:48:38Z,42.805,6.029,13.2985,4.60003,2470.46,2021-7-10T08:49:54Z
2021-07-10T06:51:41Z,42.805,6.029,13.2985,4.60006,2470.413,2021-7-10T08:52:57Z
2021-07-10T06:54:45Z,42.805,6.029,13.2987,4.60001,2470.437,2021-7-10T08:56:00Z
2021-07-10T06:57:48Z,42.805,6.029,13.2987,4.60005,2470.437,2021-7-10T08:59:03Z
2021-07-10T07:00:51Z,42.805,6.029,13.2983,4.60006,2470.427,2021-7-10T09:02:06Z
2021-07-10T07:03:54Z,42.805,6.029,13.2989,4.60003,2470.437,2021-7-10T09:05:09Z
2021-07-10T07:06:57Z,42.805,6.029,13.2991,4.60016,2470.437,2021-7-10T09:08:13Z
2021-07-10T07:10:00Z,42.805,6.029,13.2986,4.60008,2470.413,2021-7-10T09:11:16Z
2021-07-10T07:13:03Z,42.805,6.029,13.2988,4.60006,2470.437,2021-7-10T09:14:19Z
2021-07-10T07:16:06Z,42.805,6.029,13.2988,4.60011,2470.474,2021-7-10T09:17:22Z
2021-07-10T07:19:09Z,42.805,6.029,13.2988,4.60011,2470.413,2021-7-10T09:20:25Z
2021-07-10T07:22:13Z,42.805,6.029,13.2986,4.60005,2470.427,2021-7-10T09:23:28Z
2021-07-10T07:25:16Z,42.805,6.029,13.2990,4.60013,2470.46,2021-7-10T09:26:31Z
2021-07-10T07:28:19Z,42.805,6.029,13.2987,4.60011,2470.437,2021-7-10T09:29:34Z
2021-07-10T07:31:22Z,42.805,6.029,13.2990,4.60006,2470.437,2021-7-10T09:32:38Z
2021-07-10T07:34:25Z,42.805,6.029,13.2986,4.60011,2470.427,2021-7-10T09:35:41Z
2021-07-10T07:37:28Z,42.805,6.029,13.2988,4.60011,2470.437,2021-7-10T09:38:44Z
2021-07-10T07:40:31Z,42.805,6.029,13.2986,4.60007,2470.427,2021-7-10T09:41:47Z
2021-07-10T07:43:34Z,42.805,6.029,13.2981,4.60016,2470.427,2021-7-10T09:44:50Z
2021-07-10T07:46:38Z,42.805,6.029,13.2983,4.60002,2470.39,2021-7-10T09:47:53Z
2021-07-10T07:49:41Z,42.805,6.029,13.2988,4.60002,2470.45,2021-7-10T09:50:56Z
2021-07-10T07:52:44Z,42.805,6.029,13.2987,4.60017,2470.413,2021-7-10T09:53:59Z
2021-07-10T07:55:47Z,42.805,6.029,13.2987,4.60016,2470.427,2021-7-10T09:57:03Z
2021-07-10T07:58:50Z,42.805,6.029,13.2990,4.60003,2470.413,2021-7-10T10:00:06Z
2021-07-10T08:01:53Z,42.805,6.029,13.2987,4.60009,2470.437,2021-7-10T10:03:09Z
2021-07-10T08:04:56Z,42.805,6.029,13.2986,4.60004,2470.39,2021-7-10T10:06:12Z
2021-07-10T08:07:59Z,42.805,6.029,13.2990,4.60009,2470.427,2021-7-10T10:09:15Z
2021-07-10T08:11:03Z,42.805,6.029,13.2986,4.60009,2470.413,2021-7-10T10:12:18Z
2021-07-10T08:14:06Z,42.805,6.029,13.2986,4.60019,2470.45,2021-7-10T10:15:21Z
2021-07-10T08:17:09Z,42.805,6.029,13.2986,4.60003,2470.39,2021-7-10T10:18:24Z
2021-07-10T08:20:12Z,42.805,6.029,13.2989,4.60002,2470.366,2021-7-10T10:21:28Z
2021-07-10T08:23:15Z,42.805,6.029,13.2990,4.60001,2470.404,2021-7-10T10:24:31Z
2021-07-10T08:26:18Z,42.805,6.029,13.2991,4.60005,2470.39,2021-7-10T10:27:34Z
2021-07-10T08:29:21Z,42.805,6.029,13.2986,4.60016,2470.413,2021-7-10T10:30:37Z
2021-07-10T08:32:24Z,42.805,6.029,13.2993,4.60001,2470.404,2021-7-10T10:33:40Z
2021-07-10T08:35:28Z,42.805,6.029,13.2989,4.60001,2470.39,2021-7-10T10:36:43Z
2021-07-10T08:38:31Z,42.805,6.029,13.2996,4.60008,2470.404,2021-7-10T10:39:46Z
2021-07-10T08:41:34Z,42.805,6.029,13.2991,4.60012,2470.39,2021-7-10T10:42:49Z
2021-07-10T08:44:37Z,42.805,6.029,13.2996,4.59999,2470.404,2021-7-10T10:45:53Z
2021-07-10T08:47:40Z,42.805,6.029,13.2999,4.60008,2470.38,2021-7-10T10:48:56Z
2021-07-10T08:50:43Z,42.805,6.029,13.2993,4.60010,2470.334,2021-7-10T10:51:59Z
2021-07-10T08:53:46Z,42.805,6.029,13.2988,4.60009,2470.357,2021-7-10T10:55:02Z
2021-07-10T08:56:50Z,42.805,6.029,13.2991,4.59999,2470.38,2021-7-10T10:58:05Z
2021-07-10T08:59:53Z,42.805,6.029,13.2991,4.60003,2470.38,2021-7-10T11:01:08Z
2021-07-10T09:02:56Z,42.805,6.029,13.2992,4.60013,2470.404,2021-7-10T11:04:11Z
2021-07-10T09:05:59Z,42.805,6.029,13.2993,4.60006,2470.404,2021-7-10T11:07:14Z
2021-07-10T09:09:02Z,42.805,6.029,13.2991,4.60008,2470.39,2021-7-10T11:10:18Z
2021-07-10T09:12:05Z,42.805,6.029,13.2995,4.60014,2470.427,2021-7-10T11:13:21Z
2021-07-10T09:15:08Z,42.805,6.029,13.2991,4.60016,2470.38,2021-7-10T11:16:24Z
2021-07-10T09:18:11Z,42.805,6.029,13.2991,4.60023,2470.38,2021-7-10T11:19:27Z
2021-07-10T09:21:15Z,42.805,6.029,13.3000,4.60006,2470.38,2021-7-10T11:22:30Z
2021-07-10T09:24:18Z,42.805,6.029,13.2988,4.60009,2470.334,2021-7-10T11:25:33Z
2021-07-10T09:27:21Z,42.805,6.029,13.2990,4.60008,2470.38,2021-7-10T11:28:36Z
2021-07-10T09:30:24Z,42.805,6.029,13.2996,4.60005,2470.38,2021-7-10T11:31:40Z
2021-07-10T09:33:27Z,42.805,6.029,13.2991,4.60009,2470.366,2021-7-10T11:34:43Z
2021-07-10T09:36:30Z,42.805,6.029,13.2990,4.60034,2470.357,2021-7-10T11:37:46Z
2021-07-10T09:39:33Z,42.805,6.029,13.2986,4.60025,2470.366,2021-7-10T11:40:49Z
2021-07-10T09:42:36Z,42.805,6.029,13.2991,4.60006,2470.39,2021-7-10T11:43:52Z
2021-07-10T09:45:40Z,42.805,6.029,13.2985,4.60016,2470.343,2021-7-10T11:46:55Z
2021-07-10T09:48:43Z,42.805,6.029,13.2986,4.60011,2470.347,2021-7-10T11:49:58Z
2021-07-10T09:51:46Z,42.805,6.029,13.2990,4.60052,2470.366,2021-7-10T11:53:01Z
2021-07-10T09:54:49Z,42.805,6.029,13.2991,4.60042,2470.343,2021-7-10T11:56:05Z
2021-07-10T09:57:52Z,42.805,6.029,13.3084,4.60049,2470.343,2021-7-10T11:59:08Z
2021-07-10T10:00:55Z,42.805,6.029,13.3009,4.60041,2470.32,2021-7-10T12:02:11Z
2021-07-10T10:03:58Z,42.805,6.029,13.3089,4.60081,2470.357,2021-7-10T12:05:14Z
2021-07-10T10:07:01Z,42.805,6.029,13.3011,4.60061,2470.32,2021-7-10T12:08:17Z
2021-07-10T10:10:05Z,42.805,6.029,13.3033,4.60023,2470.334,2021-7-10T12:11:20Z
2021-07-10T10:13:08Z,42.805,6.029,13.3179,4.60018,2470.32,2021-7-10T12:14:23Z
2021-07-10T10:16:11Z,42.805,6.029,13.3202,4.60044,2470.32,2021-7-10T12:17:26Z
2021-07-10T10:19:14Z,42.805,6.029,13.3057,4.60064,2470.334,2021-7-10T12:20:30Z
2021-07-10T10:22:17Z,42.805,6.029,13.3049,4.60025,2470.32,2021-7-10T12:23:33Z
2021-07-10T10:25:20Z,42.805,6.029,13.3043,4.60004,2470.334,2021-7-10T12:26:36Z
2021-07-10T10:28:23Z,42.805,6.029,13.3043,4.60006,2470.357,2021-7-10T12:29:39Z
2021-07-10T10:31:27Z,42.805,6.029,13.3043,4.60027,2470.297,2021-7-10T12:32:42Z
2021-07-10T10:34:30Z,42.805,6.029,13.3046,4.60060,2470.297,2021-7-10T12:35:45Z
2021-07-10T10:37:33Z,42.805,6.029,13.3057,4.60062,2470.31,2021-7-10T12:38:48Z
2021-07-10T10:40:36Z,42.805,6.029,13.3073,4.60039,2470.357,2021-7-10T12:41:51Z
2021-07-10T10:43:39Z,42.805,6.029,13.3018,4.60068,2470.287,2021-7-10T12:44:55Z
2021-07-10T10:46:42Z,42.805,6.029,13.3015,4.60099,2470.31,2021-7-10T12:47:58Z
2021-07-10T10:49:45Z,42.805,6.029,13.3041,4.60092,2470.334,2021-7-10T12:51:01Z
2021-07-10T10:52:48Z,42.805,6.029,13.3017,4.60039,2470.297,2021-7-10T12:54:04Z
2021-07-10T10:55:52Z,42.805,6.029,13.3004,4.60102,2470.31,2021-7-10T12:57:07Z
2021-07-10T10:58:55Z,42.805,6.029,13.3024,4.60057,2470.334,2021-7-10T13:00:10Z
2021-07-10T11:01:58Z,42.805,6.029,13.3015,4.60092,2470.32,2021-7-10T13:03:13Z
2021-07-10T11:05:01Z,42.805,6.029,13.3023,4.60058,2470.273,2021-7-10T13:06:16Z
2021-07-10T11:08:04Z,42.805,6.029,13.3024,4.60058,2470.287,2021-7-10T13:09:20Z
2021-07-10T11:11:07Z,42.805,6.029,13.3009,4.60077,2470.287,2021-7-10T13:12:23Z
2021-07-10T11:14:10Z,42.805,6.029,13.3021,4.60081,2470.283,2021-7-10T13:15:26Z
2021-07-10T11:17:13Z,42.805,6.029,13.3029,4.60062,2470.273,2021-7-10T13:18:29Z
2021-07-10T11:20:17Z,42.805,6.029,13.3039,4.60022,2470.273,2021-7-10T13:21:32Z
2021-07-10T11:23:20Z,42.805,6.029,13.3018,4.60042,2470.297,2021-7-10T13:24:35Z
2021-07-10T11:26:23Z,42.805,6.029,13.3005,4.60052,2470.287,2021-7-10T13:27:38Z
2021-07-10T11:29:26Z,42.805,6.029,13.3008,4.60033,2470.273,2021-7-10T13:30:41Z
2021-07-10T11:32:29Z,42.805,6.029,13.3013,4.60061,2470.31,2021-7-10T13:33:45Z
2021-07-10T11:35:32Z,42.805,6.029,13.3029,4.60122,2470.31,2021-7-10T13:36:48Z
2021-07-10T11:38:35Z,42.805,6.029,13.3010,4.60081,2470.25,2021-7-10T13:39:51Z
2021-07-10T11:41:38Z,42.805,6.029,13.3045,4.60099,2470.31,2021-7-10T13:42:54Z
2021-07-10T11:44:42Z,42.805,6.029,13.3014,4.60091,2470.31,2021-7-10T13:45:57Z
2021-07-10T11:47:45Z,42.805,6.029,13.3011,4.60102,2470.25,2021-7-10T13:49:00Z
2021-07-10T11:50:48Z,42.805,6.029,13.3014,4.60084,2470.287,2021-7-10T13:52:03Z
2021-07-10T11:53:51Z,42.805,6.029,13.3004,4.60113,2470.287,2021-7-10T13:55:07Z
2021-07-10T11:56:54Z,42.805,6.029,13.3006,4.60077,2470.31,2021-7-10T13:58:10Z
2021-07-10T11:59:57Z,42.805,6.029,13.3021,4.60079,2470.297,2021-7-10T14:01:13Z
2021-07-10T12:03:00Z,42.805,6.029,13.3016,4.60114,2470.287,2021-7-10T14:04:16Z
2021-07-10T12:06:03Z,42.805,6.029,13.3025,4.60124,2470.273,2021-7-10T14:07:19Z
2021-07-10T12:09:07Z,42.805,6.029,13.3027,4.60125,2470.227,2021-7-10T14:10:22Z
2021-07-10T12:12:10Z,42.805,6.029,13.3014,4.60091,2470.25,2021-7-10T14:13:25Z
2021-07-10T12:15:13Z,42.805,6.029,13.3028,4.60066,2470.287,2021-7-10T14:16:28Z
2021-07-10T12:18:16Z,42.805,6.029,13.3041,4.60039,2470.273,2021-7-10T14:19:32Z
2021-07-10T12:21:19Z,42.805,6.029,13.3019,4.60084,2470.273,2021-7-10T14:22:35Z
2021-07-10T12:24:22Z,42.805,6.029,13.3021,4.60077,2470.264,2021-7-10T14:25:38Z
2021-07-10T12:27:25Z,42.805,6.029,13.3053,4.60057,2470.287,2021-7-10T14:28:41Z
2021-07-10T12:30:29Z,42.805,6.029,13.3041,4.60060,2470.264,2021-7-10T14:31:44Z
2021-07-10T12:33:32Z,42.805,6.029,13.3060,4.60051,2470.25,2021-7-10T14:34:47Z
2021-07-10T12:36:35Z,42.805,6.029,13.3065,4.60069,2470.25,2021-7-10T14:37:50Z
2021-07-10T12:39:38Z,42.805,6.029,13.3062,4.60099,2470.264,2021-7-10T14:40:53Z
2021-07-10T12:42:41Z,42.805,6.029,13.3078,4.60058,2470.24,2021-7-10T14:43:57Z
2021-07-10T12:45:44Z,42.805,6.029,13.3051,4.60080,2470.264,2021-7-10T14:47:00Z
2021-07-10T12:48:47Z,42.805,6.029,13.3060,4.60063,2470.227,2021-7-10T14:50:03Z
2021-07-10T12:51:50Z,42.805,6.029,13.3061,4.60092,2470.227,2021-7-10T14:53:06Z
2021-07-10T12:54:54Z,42.805,6.029,13.3048,4.60068,2470.227,2021-7-10T14:56:09Z
2021-07-10T12:57:57Z,42.805,6.029,13.3063,4.60069,2470.217,2021-7-10T14:59:12Z
2021-07-10T13:01:00Z,42.805,6.029,13.3071,4.60085,2470.264,2021-7-10T15:02:15Z
2021-07-10T13:04:03Z,42.805,6.029,13.3069,4.60088,2470.25,2021-7-10T15:05:18Z
2021-07-10T13:07:06Z,42.805,6.029,13.3069,4.60021,2470.264,2021-7-10T15:08:22Z
2021-07-10T13:10:09Z,42.805,6.029,13.3021,4.60042,2470.203,2021-7-10T15:11:25Z
2021-07-10T13:13:12Z,42.805,6.029,13.3022,4.60042,2470.203,2021-7-10T15:14:28Z
2021-07-10T13:16:15Z,42.805,6.029,13.3024,4.60052,2470.24,2021-7-10T15:17:31Z
2021-07-10T13:19:19Z,42.805,6.029,13.3021,4.60047,2470.25,2021-7-10T15:20:34Z
2021-07-10T13:22:22Z,42.805,6.029,13.3026,4.60078,2470.24,2021-7-10T15:23:37Z
2021-07-10T13:25:25Z,42.805,6.029,13.3029,4.60052,2470.227,2021-7-10T15:26:40Z
2021-07-10T13:28:28Z,42.805,6.029,13.3040,4.60044,2470.24,2021-7-10T15:29:43Z
2021-07-10T13:31:31Z,42.805,6.029,13.3037,4.60024,2470.24,2021-7-10T15:32:47Z
2021-07-10T13:34:34Z,42.805,6.029,13.3030,4.60044,2470.227,2021-7-10T15:35:50Z
2021-07-10T13:37:37Z,42.805,6.029,13.3028,4.60055,2470.264,2021-7-10T15:38:53Z
2021-07-10T13:40:40Z,42.805,6.029,13.3008,4.60055,2470.264,2021-7-10T15:41:56Z
2021-07-10T13:43:44Z,42.805,6.029,13.3013,4.60051,2470.264,2021-7-10T15:44:59Z
2021-07-10T13:46:47Z,42.805,6.029,13.3046,4.60053,2470.25,2021-7-10T15:48:02Z
2021-07-10T13:49:50Z,42.805,6.029,13.3006,4.60032,2470.24,2021-7-10T15:51:05Z
2021-07-10T13:52:53Z,42.805,6.029,13.3008,4.60052,2470.227,2021-7-10T15:54:09Z
2021-07-10T13:55:56Z,42.805,6.029,13.3039,4.60049,2470.203,2021-7-10T15:57:12Z
2021-07-10T13:58:59Z,42.805,6.029,13.3028,4.60041,2470.24,2021-7-10T16:00:15Z
2021-07-10T14:02:02Z,42.805,6.029,13.2998,4.60067,2470.227,2021-7-10T16:03:18Z
2021-07-10T14:05:05Z,42.805,6.029,13.3017,4.60017,2470.273,2021-7-10T16:06:21Z
2021-07-10T14:08:09Z,42.805,6.029,13.3024,4.60059,2470.24,2021-7-10T16:09:24Z
2021-07-10T14:11:12Z,42.805,6.029,13.3067,4.60014,2470.227,2021-7-10T16:12:27Z
2021-07-10T14:14:15Z,42.805,6.029,13.3051,4.60035,2470.25,2021-7-10T16:15:30Z
2021-07-10T14:17:18Z,42.805,6.029,13.3014,4.60039,2470.227,2021-7-10T16:18:34Z
2021-07-10T14:20:21Z,42.805,6.029,13.3064,4.60013,2470.24,2021-7-10T16:21:37Z
2021-07-10T14:23:24Z,42.805,6.029,13.3031,4.60031,2470.227,2021-7-10T16:24:40Z
2021-07-10T14:26:27Z,42.805,6.029,13.3031,4.60033,2470.24,2021-7-10T16:27:43Z
2021-07-10T14:29:30Z,42.805,6.029,13.3052,4.60059,2470.264,2021-7-10T16:30:46Z
2021-07-10T14:32:34Z,42.805,6.029,13.3011,4.60039,2470.264,2021-7-10T16:33:49Z
2021-07-10T14:35:37Z,42.805,6.029,13.3051,4.60064,2470.217,2021-7-10T16:36:52Z
2021-07-10T14:38:40Z,42.805,6.029,13.3052,4.60032,2470.227,2021-7-10T16:39:55Z
2021-07-10T14:41:43Z,42.805,6.029,13.3048,4.60033,2470.24,2021-7-10T16:42:59Z
2021-07-10T14:44:46Z,42.805,6.029,13.3033,4.60036,2470.24,2021-7-10T16:46:02Z
2021-07-10T14:47:49Z,42.805,6.029,13.3036,4.60041,2470.25,2021-7-10T16:49:05Z
2021-07-10T14:50:52Z,42.805,6.029,13.3054,4.60055,2470.25,2021-7-10T16:52:08Z
2021-07-10T14:53:56Z,42.805,6.029,13.3042,4.60034,2470.24,2021-7-10T16:55:11Z
2021-07-10T14:56:59Z,42.805,6.029,13.3041,4.60028,2470.24,2021-7-10T16:58:14Z
2021-07-10T15:00:02Z,42.805,6.029,13.3048,4.60026,2470.227,2021-7-10T17:01:17Z
2021-07-10T15:03:05Z,42.805,6.029,13.3044,4.60046,2470.287,2021-7-10T17:04:20Z
2021-07-10T15:06:08Z,42.805,6.029,13.3042,4.60037,2470.25,2021-7-10T17:07:24Z
2021-07-10T15:09:11Z,42.805,6.029,13.3036,4.60028,2470.24,2021-7-10T17:10:27Z
2021-07-10T15:12:14Z,42.805,6.029,13.3047,4.60039,2470.227,2021-7-10T17:13:30Z
2021-07-10T15:15:17Z,42.805,6.029,13.3034,4.60033,2470.25,2021-7-10T17:16:33Z